Home > Products > State Listing > West Virginia Data
Latest:
 RWRRLX |
  [top]

000
ASUS41 KRLX 310410
RWRRLX
West Virginia Regional Weather Roundup
National Weather Service Charleston WV
1200 AM EDT FRI OCT 31 2014

Note: "fair" indicates few or no clouds below 12,000 feet with no
significant weather and/or obstructions to visibility.

WVZ003-310500-
Northern Panhandle of West Virginia

CITY           SKY/WX    TMP DP  RH WIND       PRES   REMARKS
WHEELING       CLOUDY    44  37  76 CALM      30.04F
$$

WVZ009-310500-
Northwest West Virginia

CITY           SKY/WX    TMP DP  RH WIND       PRES   REMARKS
PARKERSBURG    CLOUDY    47  36  65 CALM      30.07F
$$

WVZ006-310500-
Western West Virginia

CITY           SKY/WX    TMP DP  RH WIND       PRES   REMARKS
HUNTINGTON     PTCLDY    40  35  83 CALM      30.05F
$$

WVZ015-310500-
West Central West Virginia

CITY           SKY/WX    TMP DP  RH WIND       PRES   REMARKS
CHARLESTON     MOCLDY    39  35  86 CALM      30.05F
$$

WVZ022-031-310500-
North Central West Virginia

CITY           SKY/WX    TMP DP  RH WIND       PRES   REMARKS
CLARKSBURG     CLOUDY    45  40  82 CALM      30.05S
MORGANTOWN     CLOUDY    47  37  68 CALM      30.06S
$$

WVZ025-035-042-045-310500-
Southern West Virginia

CITY           SKY/WX    TMP DP  RH WIND       PRES   REMARKS
BECKLEY        CLEAR     33  29  85 CALM      30.02F
LOGAN            N/A     39  34  81 CALM      30.03F
BLUEFIELD      CLEAR     37  30  75 CALM      30.02F
LEWISBURG      CLEAR     32  29  89 CALM      30.03S
$$

WVZ047-310500-
Northern Mountains of West Virginia

CITY           SKY/WX    TMP DP  RH WIND       PRES   REMARKS
ELKINS         PTCLDY    33  32  96 SE3       30.04F
$$

WVZ052-310500-
Eastern Panhandle of West Virginia

CITY           SKY/WX    TMP DP  RH WIND       PRES   REMARKS
MARTINSBURG    CLOUDY    48  36  63 CALM      30.04F
PETERSBURG     PTCLDY    39  34  81 CALM      30.06S
$$




000
ASUS41 KRLX 310310
RWRRLX
West Virginia Regional Weather Roundup
National Weather Service Charleston WV
1100 PM EDT THU OCT 30 2014

Note: "fair" indicates few or no clouds below 12,000 feet with no
significant weather and/or obstructions to visibility.

WVZ003-310400-
Northern Panhandle of West Virginia

CITY           SKY/WX    TMP DP  RH WIND       PRES   REMARKS
WHEELING       CLOUDY    46  36  68 CALM      30.05S
$$

WVZ009-310400-
Northwest West Virginia

CITY           SKY/WX    TMP DP  RH WIND       PRES   REMARKS
PARKERSBURG    CLOUDY    47  38  71 CALM      30.09S
$$

WVZ006-310400-
Western West Virginia

CITY           SKY/WX    TMP DP  RH WIND       PRES   REMARKS
HUNTINGTON     PTCLDY    42  34  73 E3        30.06S
$$

WVZ015-310400-
West Central West Virginia

CITY           SKY/WX    TMP DP  RH WIND       PRES   REMARKS
CHARLESTON     CLEAR     40  35  83 SE3       30.07R
$$

WVZ022-031-310400-
North Central West Virginia

CITY           SKY/WX    TMP DP  RH WIND       PRES   REMARKS
CLARKSBURG     CLOUDY    46  37  71 CALM      30.05F
MORGANTOWN     CLOUDY    48  37  65 CALM      30.06S
$$

WVZ025-035-042-045-310400-
Southern West Virginia

CITY           SKY/WX    TMP DP  RH WIND       PRES   REMARKS
BECKLEY        CLEAR     33  28  81 CALM      30.03S
LOGAN            N/A     39  34  81 CALM      30.05R
BLUEFIELD      CLEAR     39  30  70 E3        30.03S
LEWISBURG      CLEAR     32  30  90 CALM      30.04S
$$

WVZ047-310400-
Northern Mountains of West Virginia

CITY           SKY/WX    TMP DP  RH WIND       PRES   REMARKS
ELKINS         PTCLDY    36  34  92 CALM      30.05S
$$

WVZ052-310400-
Eastern Panhandle of West Virginia

CITY           SKY/WX    TMP DP  RH WIND       PRES   REMARKS
MARTINSBURG    CLOUDY    49  35  58 CALM      30.05S
PETERSBURG     CLEAR     41  34  75 CALM      30.06F
$$




000
ASUS41 KRLX 310210
RWRRLX
West Virginia Regional Weather Roundup
National Weather Service Charleston WV
1000 PM EDT THU OCT 30 2014

Note: "fair" indicates few or no clouds below 12,000 feet with no
significant weather and/or obstructions to visibility.

WVZ003-310300-
Northern Panhandle of West Virginia

CITY           SKY/WX    TMP DP  RH WIND       PRES   REMARKS
WHEELING       CLOUDY    46  35  65 CALM      30.05F
$$

WVZ009-310300-
Northwest West Virginia

CITY           SKY/WX    TMP DP  RH WIND       PRES   REMARKS
PARKERSBURG    CLOUDY    47  37  68 CALM      30.09S
$$

WVZ006-310300-
Western West Virginia

CITY           SKY/WX    TMP DP  RH WIND       PRES   REMARKS
HUNTINGTON     PTCLDY    44  35  70 CALM      30.06F
$$

WVZ015-310300-
West Central West Virginia

CITY           SKY/WX    TMP DP  RH WIND       PRES   REMARKS
CHARLESTON     PTCLDY    44  35  70 CALM      30.06F
$$

WVZ022-031-310300-
North Central West Virginia

CITY           SKY/WX    TMP DP  RH WIND       PRES   REMARKS
CLARKSBURG     CLOUDY    46  37  71 S3        30.06S
MORGANTOWN     CLOUDY    48  36  63 CALM      30.06S
$$

WVZ025-035-042-045-310300-
Southern West Virginia

CITY           SKY/WX    TMP DP  RH WIND       PRES   REMARKS
BECKLEY        CLEAR     34  29  82 E5        30.03F
LOGAN            N/A     41  34  75 CALM      30.04F
BLUEFIELD      CLEAR     39  31  72 E3        30.03F
LEWISBURG      CLEAR     36  30  80 CALM      30.04S
$$

WVZ047-310300-
Northern Mountains of West Virginia

CITY           SKY/WX    TMP DP  RH WIND       PRES   REMARKS
ELKINS         CLOUDY    41  35  79 CALM      30.05F
$$

WVZ052-310300-
Eastern Panhandle of West Virginia

CITY           SKY/WX    TMP DP  RH WIND       PRES   REMARKS
MARTINSBURG    CLOUDY    49  35  58 CALM      30.05S
PETERSBURG     CLOUDY    46  34  62 CALM      30.07S
$$




000
ASUS41 KRLX 310110
RWRRLX
West Virginia Regional Weather Roundup
National Weather Service Charleston WV
900 PM EDT THU OCT 30 2014

Note: "fair" indicates few or no clouds below 12,000 feet with no
significant weather and/or obstructions to visibility.

WVZ003-310200-
Northern Panhandle of West Virginia

CITY           SKY/WX    TMP DP  RH WIND       PRES   REMARKS
WHEELING       CLOUDY    46  35  65 CALM      30.06S
$$

WVZ009-310200-
Northwest West Virginia

CITY           SKY/WX    TMP DP  RH WIND       PRES   REMARKS
PARKERSBURG    CLOUDY    48  35  60 CALM      30.09F
$$

WVZ006-310200-
Western West Virginia

CITY           SKY/WX    TMP DP  RH WIND       PRES   REMARKS
HUNTINGTON     CLOUDY    46  35  65 E3        30.07S
$$

WVZ015-310200-
West Central West Virginia

CITY           SKY/WX    TMP DP  RH WIND       PRES   REMARKS
CHARLESTON     CLOUDY    47  37  68 CALM      30.07F
$$

WVZ022-031-310200-
North Central West Virginia

CITY           SKY/WX    TMP DP  RH WIND       PRES   REMARKS
CLARKSBURG     CLOUDY    46  37  71 S3        30.06S
MORGANTOWN     CLOUDY    49  35  58 CALM      30.06F
$$

WVZ025-035-042-045-310200-
Southern West Virginia

CITY           SKY/WX    TMP DP  RH WIND       PRES   REMARKS
BECKLEY        CLEAR     34  29  82 E3        30.04F
LOGAN            N/A     41  34  75 CALM      30.05F
BLUEFIELD      CLEAR     43  31  62 CALM      30.04S
LEWISBURG      CLEAR     38  31  76 CALM      30.04S
$$

WVZ047-310200-
Northern Mountains of West Virginia

CITY           SKY/WX    TMP DP  RH WIND       PRES   REMARKS
ELKINS         CLOUDY    43  36  76 CALM      30.06S
$$

WVZ052-310200-
Eastern Panhandle of West Virginia

CITY           SKY/WX    TMP DP  RH WIND       PRES   REMARKS
MARTINSBURG    CLOUDY    50  34  54 CALM      30.05F
PETERSBURG     CLOUDY    46  33  59 CALM      30.07S
$$




000
ASUS41 KRLX 310010
RWRRLX
West Virginia Regional Weather Roundup
National Weather Service Charleston WV
800 PM EDT THU OCT 30 2014

Note: "fair" indicates few or no clouds below 12,000 feet with no
significant weather and/or obstructions to visibility.

WVZ003-310100-
Northern Panhandle of West Virginia

CITY           SKY/WX    TMP DP  RH WIND       PRES   REMARKS
WHEELING       CLOUDY    46  35  65 CALM      30.06F
$$

WVZ009-310100-
Northwest West Virginia

CITY           SKY/WX    TMP DP  RH WIND       PRES   REMARKS
PARKERSBURG    CLOUDY    49  32  52 CALM      30.10S
$$

WVZ006-310100-
Western West Virginia

CITY           SKY/WX    TMP DP  RH WIND       PRES   REMARKS
HUNTINGTON     CLOUDY    47  36  65 E3        30.07F
$$

WVZ015-310100-
West Central West Virginia

CITY           SKY/WX    TMP DP  RH WIND       PRES   REMARKS
CHARLESTON     CLOUDY    48  32  53 CALM      30.08S
$$

WVZ022-031-310100-
North Central West Virginia

CITY           SKY/WX    TMP DP  RH WIND       PRES   REMARKS
CLARKSBURG     CLOUDY    47  36  65 CALM      30.06F
MORGANTOWN     CLOUDY    49  34  56 SW5       30.07F
$$

WVZ025-035-042-045-310100-
Southern West Virginia

CITY           SKY/WX    TMP DP  RH WIND       PRES   REMARKS
BECKLEY        CLEAR     39  30  70 CALM      30.05R
LOGAN            N/A     43  34  70 CALM      30.06S
BLUEFIELD      CLEAR     44  31  60 CALM      30.04S
LEWISBURG      CLEAR     40  32  74 CALM      30.04F
$$

WVZ047-310100-
Northern Mountains of West Virginia

CITY           SKY/WX    TMP DP  RH WIND       PRES   REMARKS
ELKINS         CLOUDY    43  37  79 CALM      30.06F
$$

WVZ052-310100-
Eastern Panhandle of West Virginia

CITY           SKY/WX    TMP DP  RH WIND       PRES   REMARKS
MARTINSBURG    CLOUDY    50  35  56 W3        30.06R
PETERSBURG     CLOUDY    49  32  52 NW5       30.07S
$$




000
ASUS41 KRLX 302310
RWRRLX
West Virginia Regional Weather Roundup
National Weather Service Charleston WV
700 PM EDT THU OCT 30 2014

Note: "fair" indicates few or no clouds below 12,000 feet with no
significant weather and/or obstructions to visibility.

WVZ003-310000-
Northern Panhandle of West Virginia

CITY           SKY/WX    TMP DP  RH WIND       PRES   REMARKS
WHEELING       CLOUDY    47  35  63 W5        30.07R
$$

WVZ009-310000-
Northwest West Virginia

CITY           SKY/WX    TMP DP  RH WIND       PRES   REMARKS
PARKERSBURG    CLOUDY    49  33  54 CALM      30.10S
$$

WVZ006-310000-
Western West Virginia

CITY           SKY/WX    TMP DP  RH WIND       PRES   REMARKS
HUNTINGTON     CLOUDY    48  34  58 CALM      30.08R
$$

WVZ015-310000-
West Central West Virginia

CITY           SKY/WX    TMP DP  RH WIND       PRES   REMARKS
CHARLESTON     CLOUDY    48  34  58 CALM      30.08S
$$

WVZ022-031-310000-
North Central West Virginia

CITY           SKY/WX    TMP DP  RH WIND       PRES   REMARKS
CLARKSBURG     CLOUDY    48  36  63 CALM      30.07S
MORGANTOWN     CLOUDY    50  34  54 S3        30.08S
$$

WVZ025-035-042-045-310000-
Southern West Virginia

CITY           SKY/WX    TMP DP  RH WIND       PRES   REMARKS
BECKLEY        CLEAR     40  30  67 NE5       30.04F
LOGAN            N/A     45  34  65 NE3       30.06R
BLUEFIELD      CLEAR     46  32  58 N3        30.04R
LEWISBURG      CLEAR     44  32  63 W3        30.05R
$$

WVZ047-310000-
Northern Mountains of West Virginia

CITY           SKY/WX    TMP DP  RH WIND       PRES   REMARKS
ELKINS         CLOUDY    44  34  67 W3        30.07R
$$

WVZ052-310000-
Eastern Panhandle of West Virginia

CITY           SKY/WX    TMP DP  RH WIND       PRES   REMARKS
MARTINSBURG    CLOUDY    52  32  46 CALM      30.05S
PETERSBURG     CLOUDY    50  32  50 NW5       30.06S
$$




000
ASUS41 KRLX 302210
RWRRLX
West Virginia Regional Weather Roundup
National Weather Service Charleston WV
600 PM EDT THU OCT 30 2014

Note: "fair" indicates few or no clouds below 12,000 feet with no
significant weather and/or obstructions to visibility.

WVZ003-302300-
Northern Panhandle of West Virginia

CITY           SKY/WX    TMP DP  RH WIND       PRES   REMARKS
WHEELING       CLOUDY    48  36  63 W5        30.06S
$$

WVZ009-302300-
Northwest West Virginia

CITY           SKY/WX    TMP DP  RH WIND       PRES   REMARKS
PARKERSBURG    CLOUDY    50  32  50 CALM      30.10F
$$

WVZ006-302300-
Western West Virginia

CITY           SKY/WX    TMP DP  RH WIND       PRES   REMARKS
HUNTINGTON     CLOUDY    49  33  54 CALM      30.07S
$$

WVZ015-302300-
West Central West Virginia

CITY           SKY/WX    TMP DP  RH WIND       PRES   REMARKS
CHARLESTON     CLOUDY    49  33  54 CALM      30.08S
$$

WVZ022-031-302300-
North Central West Virginia

CITY           SKY/WX    TMP DP  RH WIND       PRES   REMARKS
CLARKSBURG     CLOUDY    47  37  68 SW3       30.07S
MORGANTOWN     CLOUDY    50  34  54 CALM      30.08R
$$

WVZ025-035-042-045-302300-
Southern West Virginia

CITY           SKY/WX    TMP DP  RH WIND       PRES   REMARKS
BECKLEY        CLEAR     43  30  60 N7        30.05R
LOGAN          MOCLDY    48  34  57 CALM      30.05F
BLUEFIELD      CLEAR     49  32  52 CALM      30.03S
LEWISBURG      CLEAR     47  32  55 W6        30.04R
$$

WVZ047-302300-
Northern Mountains of West Virginia

CITY           SKY/WX    TMP DP  RH WIND       PRES   REMARKS
ELKINS         CLOUDY    45  34  65 NW5       30.06S
$$

WVZ052-302300-
Eastern Panhandle of West Virginia

CITY           SKY/WX    TMP DP  RH WIND       PRES   REMARKS
MARTINSBURG    CLOUDY    53  33  46 NW3       30.05S
PETERSBURG     CLOUDY    51  32  47 NW5       30.06S
$$




000
ASUS41 KRLX 302210
RWRRLX
West Virginia Regional Weather Roundup
National Weather Service Charleston WV
600 PM EDT THU OCT 30 2014

Note: "fair" indicates few or no clouds below 12,000 feet with no
significant weather and/or obstructions to visibility.

WVZ003-302300-
Northern Panhandle of West Virginia

CITY           SKY/WX    TMP DP  RH WIND       PRES   REMARKS
WHEELING       CLOUDY    48  36  63 W5        30.06S
$$

WVZ009-302300-
Northwest West Virginia

CITY           SKY/WX    TMP DP  RH WIND       PRES   REMARKS
PARKERSBURG    CLOUDY    50  32  50 CALM      30.10F
$$

WVZ006-302300-
Western West Virginia

CITY           SKY/WX    TMP DP  RH WIND       PRES   REMARKS
HUNTINGTON     CLOUDY    49  33  54 CALM      30.07S
$$

WVZ015-302300-
West Central West Virginia

CITY           SKY/WX    TMP DP  RH WIND       PRES   REMARKS
CHARLESTON     CLOUDY    49  33  54 CALM      30.08S
$$

WVZ022-031-302300-
North Central West Virginia

CITY           SKY/WX    TMP DP  RH WIND       PRES   REMARKS
CLARKSBURG     CLOUDY    47  37  68 SW3       30.07S
MORGANTOWN     CLOUDY    50  34  54 CALM      30.08R
$$

WVZ025-035-042-045-302300-
Southern West Virginia

CITY           SKY/WX    TMP DP  RH WIND       PRES   REMARKS
BECKLEY        CLEAR     43  30  60 N7        30.05R
LOGAN          MOCLDY    48  34  57 CALM      30.05F
BLUEFIELD      CLEAR     49  32  52 CALM      30.03S
LEWISBURG      CLEAR     47  32  55 W6        30.04R
$$

WVZ047-302300-
Northern Mountains of West Virginia

CITY           SKY/WX    TMP DP  RH WIND       PRES   REMARKS
ELKINS         CLOUDY    45  34  65 NW5       30.06S
$$

WVZ052-302300-
Eastern Panhandle of West Virginia

CITY           SKY/WX    TMP DP  RH WIND       PRES   REMARKS
MARTINSBURG    CLOUDY    53  33  46 NW3       30.05S
PETERSBURG     CLOUDY    51  32  47 NW5       30.06S
$$




000
ASUS41 KRLX 302110
RWRRLX
West Virginia Regional Weather Roundup
National Weather Service Charleston WV
500 PM EDT THU OCT 30 2014

Note: "fair" indicates few or no clouds below 12,000 feet with no
significant weather and/or obstructions to visibility.

WVZ003-302200-
Northern Panhandle of West Virginia

CITY           SKY/WX    TMP DP  RH WIND       PRES   REMARKS
WHEELING       CLOUDY    48  34  58 W6        30.06S
$$

WVZ009-302200-
Northwest West Virginia

CITY           SKY/WX    TMP DP  RH WIND       PRES   REMARKS
PARKERSBURG    CLOUDY    51  32  48 CALM      30.11R
$$

WVZ006-302200-
Western West Virginia

CITY           SKY/WX    TMP DP  RH WIND       PRES   REMARKS
HUNTINGTON     CLOUDY    49  36  61 E3        30.07F
$$

WVZ015-302200-
West Central West Virginia

CITY           SKY/WX    TMP DP  RH WIND       PRES   REMARKS
CHARLESTON     CLOUDY    49  34  56 CALM      30.08S
$$

WVZ022-031-302200-
North Central West Virginia

CITY           SKY/WX    TMP DP  RH WIND       PRES   REMARKS
CLARKSBURG     CLOUDY    48  36  63 SW6       30.07S
MORGANTOWN     CLOUDY    50  35  56 CALM      30.07F
$$

WVZ025-035-042-045-302200-
Southern West Virginia

CITY           SKY/WX    TMP DP  RH WIND       PRES   REMARKS
BECKLEY        SUNNY     45  31  58 N7        30.04S
LOGAN          CLOUDY    50  34  53 CALM      30.06S
BLUEFIELD      SUNNY     51  32  48 VRB5      30.03F
LEWISBURG      SUNNY     49  32  51 W3        30.03S
$$

WVZ047-302200-
Northern Mountains of West Virginia

CITY           SKY/WX    TMP DP  RH WIND       PRES   REMARKS
ELKINS         CLOUDY    45  32  60 N5        30.06F
$$

WVZ052-302200-
Eastern Panhandle of West Virginia

CITY           SKY/WX    TMP DP  RH WIND       PRES   REMARKS
MARTINSBURG    CLOUDY    54  33  45 NW8       30.05S
PETERSBURG     CLOUDY    51  31  45 CALM      30.06S
$$




000
ASUS41 KRLX 302110
RWRRLX
West Virginia Regional Weather Roundup
National Weather Service Charleston WV
500 PM EDT THU OCT 30 2014

Note: "fair" indicates few or no clouds below 12,000 feet with no
significant weather and/or obstructions to visibility.

WVZ003-302200-
Northern Panhandle of West Virginia

CITY           SKY/WX    TMP DP  RH WIND       PRES   REMARKS
WHEELING       CLOUDY    48  34  58 W6        30.06S
$$

WVZ009-302200-
Northwest West Virginia

CITY           SKY/WX    TMP DP  RH WIND       PRES   REMARKS
PARKERSBURG    CLOUDY    51  32  48 CALM      30.11R
$$

WVZ006-302200-
Western West Virginia

CITY           SKY/WX    TMP DP  RH WIND       PRES   REMARKS
HUNTINGTON     CLOUDY    49  36  61 E3        30.07F
$$

WVZ015-302200-
West Central West Virginia

CITY           SKY/WX    TMP DP  RH WIND       PRES   REMARKS
CHARLESTON     CLOUDY    49  34  56 CALM      30.08S
$$

WVZ022-031-302200-
North Central West Virginia

CITY           SKY/WX    TMP DP  RH WIND       PRES   REMARKS
CLARKSBURG     CLOUDY    48  36  63 SW6       30.07S
MORGANTOWN     CLOUDY    50  35  56 CALM      30.07F
$$

WVZ025-035-042-045-302200-
Southern West Virginia

CITY           SKY/WX    TMP DP  RH WIND       PRES   REMARKS
BECKLEY        SUNNY     45  31  58 N7        30.04S
LOGAN          CLOUDY    50  34  53 CALM      30.06S
BLUEFIELD      SUNNY     51  32  48 VRB5      30.03F
LEWISBURG      SUNNY     49  32  51 W3        30.03S
$$

WVZ047-302200-
Northern Mountains of West Virginia

CITY           SKY/WX    TMP DP  RH WIND       PRES   REMARKS
ELKINS         CLOUDY    45  32  60 N5        30.06F
$$

WVZ052-302200-
Eastern Panhandle of West Virginia

CITY           SKY/WX    TMP DP  RH WIND       PRES   REMARKS
MARTINSBURG    CLOUDY    54  33  45 NW8       30.05S
PETERSBURG     CLOUDY    51  31  45 CALM      30.06S
$$




000
ASUS41 KRLX 302010
RWRRLX
West Virginia Regional Weather Roundup
National Weather Service Charleston WV
400 PM EDT THU OCT 30 2014

Note: "fair" indicates few or no clouds below 12,000 feet with no
significant weather and/or obstructions to visibility.

WVZ003-302100-
Northern Panhandle of West Virginia

CITY           SKY/WX    TMP DP  RH WIND       PRES   REMARKS
WHEELING       CLOUDY    49  35  58 W8        30.06F
$$

WVZ009-302100-
Northwest West Virginia

CITY           SKY/WX    TMP DP  RH WIND       PRES   REMARKS
PARKERSBURG    PTSUNNY   51  34  52 W7        30.10F
$$

WVZ006-302100-
Western West Virginia

CITY           SKY/WX    TMP DP  RH WIND       PRES   REMARKS
HUNTINGTON     CLOUDY    49  35  58 CALM      30.09S
$$

WVZ015-302100-
West Central West Virginia

CITY           SKY/WX    TMP DP  RH WIND       PRES   REMARKS
CHARLESTON     CLOUDY    49  33  54 CALM      30.08F
$$

WVZ022-031-302100-
North Central West Virginia

CITY           SKY/WX    TMP DP  RH WIND       PRES   REMARKS
CLARKSBURG     CLOUDY    48  35  60 W3        30.07F
MORGANTOWN     CLOUDY    51  35  54 SW3       30.08S
$$

WVZ025-035-042-045-302100-
Southern West Virginia

CITY           SKY/WX    TMP DP  RH WIND       PRES   REMARKS
BECKLEY        PTSUNNY   45  31  58 NE6       30.05F
LOGAN          MOCLDY    48  34  57 CALM      30.06F
BLUEFIELD      SUNNY     50  33  52 W5        30.04F
LEWISBURG      MOSUNNY   48  32  53 NW3       30.04F
$$

WVZ047-302100-
Northern Mountains of West Virginia

CITY           SKY/WX    TMP DP  RH WIND       PRES   REMARKS
ELKINS         CLOUDY    45  32  60 CALM      30.07S
$$

WVZ052-302100-
Eastern Panhandle of West Virginia

CITY           SKY/WX    TMP DP  RH WIND       PRES   REMARKS
MARTINSBURG    CLOUDY    54  33  45 NW9       30.05S
PETERSBURG     CLOUDY    51  30  45 CALM      30.06S
$$




000
ASUS41 KRLX 301910
RWRRLX
West Virginia Regional Weather Roundup
National Weather Service Charleston WV
300 PM EDT THU OCT 30 2014

Note: "fair" indicates few or no clouds below 12,000 feet with no
significant weather and/or obstructions to visibility.

WVZ003-302000-
Northern Panhandle of West Virginia

CITY           SKY/WX    TMP DP  RH WIND       PRES   REMARKS
WHEELING       CLOUDY    49  35  58 W7        30.07F
$$

WVZ009-302000-
Northwest West Virginia

CITY           SKY/WX    TMP DP  RH WIND       PRES   REMARKS
PARKERSBURG    PTSUNNY   51  34  52 VRB3      30.11F
$$

WVZ006-302000-
Western West Virginia

CITY           SKY/WX    TMP DP  RH WIND       PRES   REMARKS
HUNTINGTON     CLOUDY    49  34  56 CALM      30.09F
$$

WVZ015-302000-
West Central West Virginia

CITY           SKY/WX    TMP DP  RH WIND       PRES   REMARKS
CHARLESTON     CLOUDY    49  32  52 SW3       30.10F
$$

WVZ022-031-302000-
North Central West Virginia

CITY           SKY/WX    TMP DP  RH WIND       PRES   REMARKS
CLARKSBURG     CLOUDY    49  36  61 SW5       30.08F
MORGANTOWN     CLOUDY    51  35  54 CALM      30.08F
$$

WVZ025-035-042-045-302000-
Southern West Virginia

CITY           SKY/WX    TMP DP  RH WIND       PRES   REMARKS
BECKLEY        CLOUDY    44  31  60 N3        30.07F
LOGAN          CLOUDY    48  34  57 CALM      30.08F
BLUEFIELD      SUNNY     50  34  54 NW6       30.05F
LEWISBURG      CLOUDY    48  32  53 N6        30.05F
$$

WVZ047-302000-
Northern Mountains of West Virginia

CITY           SKY/WX    TMP DP  RH WIND       PRES   REMARKS
ELKINS         CLOUDY    45  34  65 N3        30.07F
$$

WVZ052-302000-
Eastern Panhandle of West Virginia

CITY           SKY/WX    TMP DP  RH WIND       PRES   REMARKS
MARTINSBURG    CLOUDY    55  33  43 NW12      30.05F
PETERSBURG     CLOUDY    52  31  44 W3        30.06F
$$




000
ASUS41 KRLX 301810
RWRRLX
West Virginia Regional Weather Roundup
National Weather Service Charleston WV
200 PM EDT THU OCT 30 2014

Note: "fair" indicates few or no clouds below 12,000 feet with no
significant weather and/or obstructions to visibility.

WVZ003-301900-
Northern Panhandle of West Virginia

CITY           SKY/WX    TMP DP  RH WIND       PRES   REMARKS
WHEELING       CLOUDY    49  36  61 NW8       30.08F
$$

WVZ009-301900-
Northwest West Virginia

CITY           SKY/WX    TMP DP  RH WIND       PRES   REMARKS
PARKERSBURG    CLOUDY    50  35  56 W7        30.13F
$$

WVZ006-301900-
Western West Virginia

CITY           SKY/WX    TMP DP  RH WIND       PRES   REMARKS
HUNTINGTON     CLOUDY    49  35  58 N6        30.12F
$$

WVZ015-301900-
West Central West Virginia

CITY           SKY/WX    TMP DP  RH WIND       PRES   REMARKS
CHARLESTON     CLOUDY    49  33  54 S3        30.11F
$$

WVZ022-031-301900-
North Central West Virginia

CITY           SKY/WX    TMP DP  RH WIND       PRES   REMARKS
CLARKSBURG     CLOUDY    49  35  58 VRB5      30.09F
MORGANTOWN     CLOUDY    50  34  54 W3        30.09F
$$

WVZ025-035-042-045-301900-
Southern West Virginia

CITY           SKY/WX    TMP DP  RH WIND       PRES   REMARKS
BECKLEY        CLOUDY    43  31  62 N5        30.08F
LOGAN          CLOUDY    46  34  61 VRB5      30.10F
BLUEFIELD      MOSUNNY   47  33  58 N5        30.06F
LEWISBURG      PTSUNNY   49  32  53 NW6       30.06F
$$

WVZ047-301900-
Northern Mountains of West Virginia

CITY           SKY/WX    TMP DP  RH WIND       PRES   REMARKS
ELKINS         CLOUDY    45  34  65 CALM      30.08F
$$

WVZ052-301900-
Eastern Panhandle of West Virginia

CITY           SKY/WX    TMP DP  RH WIND       PRES   REMARKS
MARTINSBURG    CLOUDY    55  33  43 NW8       30.06F
PETERSBURG     CLOUDY    52  30  44 CALM      30.08F
$$




000
ASUS41 KRLX 301710
RWRRLX
West Virginia Regional Weather Roundup
National Weather Service Charleston WV
100 PM EDT THU OCT 30 2014

Note: "fair" indicates few or no clouds below 12,000 feet with no
significant weather and/or obstructions to visibility.

WVZ003-301800-
Northern Panhandle of West Virginia

CITY           SKY/WX    TMP DP  RH WIND       PRES   REMARKS
WHEELING       MOSUNNY   50  37  61 NW9       30.10F
$$

WVZ009-301800-
Northwest West Virginia

CITY           SKY/WX    TMP DP  RH WIND       PRES   REMARKS
PARKERSBURG    PTSUNNY   49  36  61 NW3       30.16F
$$

WVZ006-301800-
Western West Virginia

CITY           SKY/WX    TMP DP  RH WIND       PRES   REMARKS
HUNTINGTON     CLOUDY    48  36  63 CALM      30.14F
$$

WVZ015-301800-
West Central West Virginia

CITY           SKY/WX    TMP DP  RH WIND       PRES   REMARKS
CHARLESTON     CLOUDY    48  34  58 CALM      30.13F
$$

WVZ022-031-301800-
North Central West Virginia

CITY           SKY/WX    TMP DP  RH WIND       PRES   REMARKS
CLARKSBURG     CLOUDY    48  36  63 CALM      30.11F
MORGANTOWN     CLOUDY    51  35  54 CALM      30.11F
$$

WVZ025-035-042-045-301800-
Southern West Virginia

CITY           SKY/WX    TMP DP  RH WIND       PRES   REMARKS
BECKLEY        CLOUDY    42  31  64 N8        30.10F
LOGAN          CLOUDY    46  34  61 CALM      30.12F
BLUEFIELD      CLOUDY    47  33  58 N7        30.09F
LEWISBURG      CLOUDY    47  32  56 N7        30.09F
$$

WVZ047-301800-
Northern Mountains of West Virginia

CITY           SKY/WX    TMP DP  RH WIND       PRES   REMARKS
ELKINS         CLOUDY    44  34  67 CALM      30.10F
$$

WVZ052-301800-
Eastern Panhandle of West Virginia

CITY           SKY/WX    TMP DP  RH WIND       PRES   REMARKS
MARTINSBURG    CLOUDY    55  33  43 N7        30.07F
PETERSBURG     CLOUDY    51  32  47 CALM      30.10F
$$




    US Dept of Commerce
    National Oceanic and Atmospheric Administration
    National Weather Service
    1325 East West Highway
    Silver Spring, MD 20910
    Page Author: NWS Internet Services Team
Disclaimer
Information Quality
Credits
Glossary
Privacy Policy
Freedom of Information Act (FOIA)
About Us
Career Opportunities